Showing default

FLOCK 4H 24, 66727

Orbit data source: Space-Track

FLOCK 4H 24, 66727 is a payload satellite owned by Planet (US) in SSO that was launched on Fri, 28 Nov 2025 UTC via an FALCON 9 launch vehicle from the Air Force Western Test Range (AFWTR). Payload-class satellites include a variety of spacecraft equipped with specific instruments for various scientific and technological missions. These include communications satellites like Starlink; space stations such as the ISS; scientific satellites like the Hubble; Earth observation satellites from companies like Planet Labs, Umbra, and HawkEye 360; GPS; miniature CubeSats for education and research; and military/defense satellites.

Loading next visibility...
Identifier
66727, 2025-276BP
Orbit
SSO
Country
Flag of USUS
Related business
Manufacturer
Planet
Mission
Operational Commercial Imaging
Bus & Motor
CUBESAT 3U, Unknown motor
Mass
5.7 kg wet, 5.7 kg dry
Launch date (UTC)
2025-11-28 (2 months ago)
Launch vehicle
FALCON 9
Launch site
Air Force Western Test Range (AFWTR)
Object type
Payload
Rocket body
Debris
Shape & HBR
Box + 2 Pan, 1.0 m
Radar Cross Section
0.072 m²

Expand to show TLE details & history
Last TLE update: 22 hours ago

TLE from 22 hours ago
0 FLOCK 4H 24
1 66727U 25276BP  26034.15908418  .00008105  00000-0  40146-3 0  9993
2 66727  97.4376 110.0262 0005387 115.0974 245.0820 15.18014114 10073
Epoch: 2026-02-03T03:49Z
TLE epoch observation values (Epoch: 2026-02-03T03:49:04.873Z)
Latitude
0.00005°
Longitude
-80.58813°
Altitude
516.496 km
Speed
7.604 km/s
True Right ascension
07h 20m 06s
True Declination
0° 00' 00"
Sunlit
Object was in full shadow at epoch
Visualization orbit readout
Latitude
Unknown
Longitude
Unknown
Altitude
Unknown
Speed
Unknown
Apparent Right ascension
Unknown
Apparent Declination
Unknown
Sunlit
N/A
Visualization observer readout
Local Sidereal Time
04:08:57
Azimuth
Unknown
Elevation
Unknown
Doppler factor
Unknown
Orbital elements
Apogee altitude
512.523 km
Perigee altitude
505.103 km
Semi-major axis
6,886.95 km
Eccentricity
0.00054
Inclination
97.4376°
RAAN
110.0262°
Arg. of periapsis
115.0974°
True anomaly
245.02603°
Mean anomaly
245.082°
Eccentric anomaly
245.05401°
Mean motion
3.79754 °/min
Orbital period
94.8 mins
BSTAR
0.00040146
Loading maneuver chart data...
Computing Atmospheric mass density...
Loading historical data...
Loading historical data...
Loading historical data...
Loading historical data...
Loading historical data...
Loading historical data...
Loading historical data...

Documentation

Showing up to 5 results
|